{"data":{"norad_id":58945,"epoch":"2026-09-20T22:11:07.474848Z","epoch_age_seconds":118989,"freshness":"FRESH","line1":"1 58945U 24027Q   26263.92439207 -.00000811  00000+0 -12869-4 0  9992","line2":"2 58945  53.1606  81.8844 0001077 102.0888 258.0235 15.34393365147806","mean_motion":15.34393365,"eccentricity":0.0001077,"inclination_deg":53.1606,"raan_deg":81.8844,"arg_perigee_deg":102.0888,"mean_anomaly_deg":258.0235,"bstar":-1.2869e-5,"rev_number":14780,"period_min":93.848163896355,"perigee_km":461.98620027864,"apogee_km":463.45972151422,"semimajor_km":6840.8599608964,"source":"CELESTRAK","updated_at":"2026-09-21T09:00:33.998888Z"}}